This is the latest recevied weather packets stored in our database for station/object DC5DM-13. If no packets are shown the sender has not sent any weather packets the latest 10 day(s).
| Time | Temp. | Humidity | Pressure | Rain* | Wind** | Luminosity | Snow |
|---|---|---|---|---|---|---|---|
| 1777502476 | 7.78° C | 48% | 1028 hPa | 0 mm | - | - | - |
| 1777501844 | 8.33° C | 47% | 1028 hPa | 0 mm | - | - | - |
| 1777501276 | 8.33° C | 48% | 1027.9 hPa | 0 mm | - | - | - |
| 1777500650 | 8.33° C | 49% | 1027.7 hPa | 0 mm | - | - | - |
| 1777500076 | 7.78° C | 49% | 1027.8 hPa | 0 mm | - | - | - |
| 1777499444 | 8.33° C | 49% | 1027.8 hPa | 0 mm | - | - | - |
| 1777498876 | 8.33° C | 50% | 1027.9 hPa | 0 mm | - | - | - |
| 1777498244 | 8.33° C | 49% | 1027.8 hPa | 0 mm | - | - | - |
| 1777497676 | 8.89° C | 48% | 1027.7 hPa | 0 mm | - | - | - |
| 1777497044 | 9.44° C | 46% | 1027.7 hPa | 0 mm | - | - | - |
| 1777496476 | 8.89° C | 47% | 1027.7 hPa | 0 mm | - | - | - |
| 1777495844 | 8.89° C | 48% | 1027.5 hPa | 0 mm | - | - | - |
| 1777495276 | 9.44° C | 46% | 1027.6 hPa | 0 mm | - | - | - |
| 1777494644 | 8.89° C | 50% | 1027.5 hPa | 0 mm | - | - | - |
| 1777494076 | 8.89° C | 49% | 1027.6 hPa | 0 mm | - | - | - |
| 1777493444 | 8.89° C | 48% | 1027.5 hPa | 0 mm | - | - | - |
| 1777492876 | 9.44° C | 47% | 1027.4 hPa | 0 mm | - | - | - |
| 1777492245 | 9.44° C | 46% | 1027.2 hPa | 0 mm | - | - | - |
| 1777491676 | 10° C | 44% | 1026.9 hPa | 0 mm | - | - | - |
| 1777491044 | 10.56° C | 43% | 1026.8 hPa | 0 mm | - | - | - |
| 1777490476 | 11.11° C | 41% | 1026.7 hPa | 0 mm | - | - | - |
| 1777489844 | 11.11° C | 41% | 1026.6 hPa | 0 mm | - | - | - |
| 1777489277 | 11.11° C | 41% | 1026.4 hPa | 0 mm | - | - | - |
| 1777488644 | 11.67° C | 40% | 1026.2 hPa | 0 mm | - | - | - |
| 1777488076 | 12.22° C | 38% | 1026.1 hPa | 0 mm | - | - | - |
* Rain latest hour (hover to see other rain measurements)
** Current wind speed in m/s (hover to see current wind gust speed)